{"data":{"norad_id":60145,"intl_designator":"2024-120L","name":"STARLINK-32029","alt_names":[],"object_type":"PAYLOAD","status":"ACTIVE","operator":null,"country":"US","launch_date":"2024-06-27","launch_site_code":"AFETR","launch_vehicle":null,"mission":null,"orbit_class":"UNKNOWN","rcs_meters":null,"size_class":null,"mass_kg":null,"dimensions":null,"purposes":["comms"],"wikipedia_slug":null,"has_3d_model":false,"image_url":null,"decayed_at":null,"tle_current":{"epoch":"2026-05-24T21:29:42.781056Z","epoch_age_seconds":80677,"freshness":"FRESH","line1":"1 60145U 24120L   26144.89563404  .00000451  00000+0  25026-4 0  9999","line2":"2 60145  53.1609 325.9552 0000680  86.4587 273.6493 15.33546726108044","mean_motion":15.33546726,"eccentricity":6.8e-5,"inclination_deg":53.1609,"raan_deg":325.9552,"arg_perigee_deg":86.4587,"mean_anomaly_deg":273.6493,"bstar":2.5026e-5,"rev_number":10804,"period_min":93.899975500323,"perigee_km":464.77517653157,"apogee_km":465.70587587514,"semimajor_km":6843.3775262034,"source":"CELESTRAK","updated_at":"2026-05-25T13:38:19.189898Z"}}}